Terug naar catalogus

STARLINK-5770

ActiefCommunicatieVLEO
NORAD 56026·PAYLOAD·🇺🇸 United States

Gelanceerd Mar 24, 2023 vanaf Cape Canaveral Space Force Station

Loading…

Volgende Passages (komende 24 uur)

TLE

VersSource: CelesTrak SupGP

Epoch: Sep 15, 2026, 01:35 UTC

1 56026C 23042AS  26258.06645833 -.00030955  00000+0 -11210-2 0  2586
2 56026  43.0021  55.4037 0001468 268.5134  32.7887 15.27597745    11

Volg STARLINK-5770 in realtime met AllMySat

Download on the App Store